This is the latest recevied weather packets stored in our database for station/object KQ4OSL. If no packets are shown the sender has not sent any weather packets the latest 10 day(s).
| Time | Temp. | Humidity | Pressure | Rain* | Wind** | Luminosity | Snow |
|---|---|---|---|---|---|---|---|
| 1787428048 | 32.78° C | 51% | 1017.5 hPa | 0 mm | - | 572 W/m² | - |
| 1787427743 | 32.22° C | 55% | 1017.5 hPa | 0 mm | - | 583 W/m² | - |
| 1787427438 | 31.67° C | 58% | 1017.7 hPa | 0 mm | - | 592 W/m² | - |
| 1787427135 | 32.22° C | 53% | 1017.5 hPa | 0 mm | - | 603 W/m² | - |
| 1787426830 | 31.67° C | 50% | 1017.5 hPa | 0 mm | - | 618 W/m² | - |
| 1787426525 | 32.22° C | 58% | 1017.9 hPa | 0 mm | - | 632 W/m² | - |
| 1787426222 | 32.22° C | 58% | 1017.7 hPa | 0 mm | - | 641 W/m² | - |
| 1787425918 | 31.67° C | 58% | 1017.9 hPa | 0 mm | - | 647 W/m² | - |
| 1787425614 | 32.22° C | 59% | 1017.8 hPa | 0 mm | - | 656 W/m² | - |
| 1787425310 | 32.22° C | 61% | 1017.8 hPa | 0 mm | - | 669 W/m² | - |
| 1787425004 | 31.67° C | 59% | 1017.8 hPa | 0 mm | - | 678 W/m² | - |
| 1787424703 | 32.22° C | 57% | 1017.8 hPa | 0 mm | - | 680 W/m² | - |
| 1787424399 | 32.22° C | 59% | 1018.1 hPa | 0 mm | - | 683 W/m² | - |
| 1787424098 | 32.22° C | 58% | 1018 hPa | 0 mm | - | 696 W/m² | - |
| 1787423795 | 32.22° C | 54% | 1018.1 hPa | 0 mm | - | 705 W/m² | - |
| 1787423491 | 31.67° C | 55% | 1018.1 hPa | 0 mm | - | 713 W/m² | - |
| 1787423187 | 32.22° C | 59% | 1018.2 hPa | 0 mm | - | 716 W/m² | - |
| 1787422883 | 32.22° C | 62% | 1018.4 hPa | 0 mm | - | 710 W/m² | - |
| 1787422579 | 32.22° C | 60% | 1018.2 hPa | 0 mm | - | 732 W/m² | - |
| 1787422274 | 31.67° C | 61% | 1018.4 hPa | 0 mm | - | 728 W/m² | - |
| 1787421970 | 31.67° C | 66% | 1018.3 hPa | 0 mm | - | 740 W/m² | - |
| 1787421667 | 31.11° C | 66% | 1018.4 hPa | 0 mm | - | 678 W/m² | - |
| 1787421361 | 31.67° C | 65% | 1018.5 hPa | 0 mm | - | 748 W/m² | - |
| 1787421057 | 31.67° C | 64% | 1018.5 hPa | 0 mm | - | 744 W/m² | - |
| 1787420752 | 31.11° C | 66% | 1018.4 hPa | 0 mm | - | 756 W/m² | - |
* Rain latest hour (hover to see other rain measurements)
** Current wind speed in m/s (hover to see current wind gust speed)